[[{"header":{"parameterUnit":"m.s-1","parameterCategory":1,"la1":30.2991,"la2":30.254,"lo1":-89.0895,"lo2":-89.0444,"dy":0.0017,"dx":0.0017,"nx":28,"ny":28,"refTime":"2025-08-21T09:00:00:Z","depth":0,"parameterNumber":2,"parameterNumberName":"U-component_of_WINDS"},"data":[0,0,0,0,0,0,0,0,0,0,0,0,0,0,0,0,0,0,0,0,0,0,0,0,0,0,0,0,0,0,0,0,0,0,0,0,0,0,0,0,0,0,0,0,0,0,0,0,0,0,0,0,0,0,0,0,0,0,0.8043,0.8042,0,0.7947,0.7946,0.7945,0.7907,0.7907,0.7907,0.7907,0.7803,0.7801,0.7798,0,0,0,0,0,0,0,0,0,0,0,0,0,0.8188,0.8185,0.8043,0.8042,0.8041,0.7947,0.7946,0.7945,0.7906,0.7907,0.7907,0.7907,0.7804,0.7801,0.7797,0,0,0,0,0,0,0,0,0,0,0,0,0,0.8111,0.8184,0.8043,0.801,0.8007,0.7947,0.7946,0.7944,0.7906,0.7907,0.7907,0.7908,0.7806,0.7801,0.7797,0.7761,0,0,0.7783,0.7781,0,0,0,0,0,0,0,0,0.8116,0.8106,0.8016,0.8013,0.8008,0.7939,0.7959,0.7883,0.7906,0.7944,0.7907,0.7908,0.7848,0.784,0.7821,0.7757,0.7752,0.7783,0.778,0.7778,0.7777,0,0,0,0,0,0,0,0.8121,0.811,0.8005,0.8015,0.801,0.7999,0.7988,0.7944,0.7895,0.7941,0.7938,0.7928,0.7846,0.7825,0.7818,0.7751,0.7783,0.7779,0.7776,0.7774,0.7651,0.7651,0,0,0,0,0,0,0.8133,0.8115,0.8008,0.8002,0.8064,0.7996,0.7984,0.7961,0.7895,0.7886,0.7927,0.7926,0.7833,0.7824,0.7814,0.7768,0.7778,0.7774,0.7771,0.7652,0.7651,0.7651,0,0,0,0,0,0,0.8136,0.8123,0.8012,0.8057,0.8042,0.7993,0.7967,0.7959,0.7939,0.7885,0.7876,0.7916,0.7833,0.7821,0.7775,0.7764,0.7772,0.7768,0.7652,0.7652,0.7651,0.7675,0,0,0,0,0,0,0.814,0.8125,0.8112,0.8058,0.804,0.7976,0.7966,0.7957,0.7932,0.7929,0.7872,0.7863,0.7832,0.7782,0.7771,0.7758,0.7764,0.7653,0.7652,0.7651,0.7675,0.7675,0.7675,0,0,0,0,0,0.8145,0.8122,0.8112,0.8099,0.8024,0.7975,0.7965,0.7932,0.7931,0.7917,0.7882,0.7865,0.7767,0.7778,0.7764,0.775,0.7654,0.7652,0.7651,0.7675,0.7675,0.7675,0,0,0,0,0,0,0.8174,0.8114,0.8102,0.806,0.8023,0.7969,0.795,0.7933,0.7894,0.7893,0.7852,0.784,0.7797,0.7769,0.7782,0.7712,0.7709,0.7705,0.7732,0.7731,0.7732,0.7738,0.776,0,0,0,0,0,0.8176,0.8143,0.8092,0.806,0.8042,0.8,0.7977,0.7955,0.7914,0.7898,0.786,0.782,0.778,0.7754,0.7715,0.7671,0.7658,0.7655,0.7655,0.7656,0.7652,0.7626,0.7624,0.7646,0.7646,0.7646,0,0,0.8178,0.8142,0.8123,0.8065,0.8033,0.7999,0.7986,0.795,0.7924,0.7892,0.7846,0.7818,0.7769,0.7725,0.7703,0.77,0.7643,0.7654,0.7655,0.7651,0.7625,0.7622,0.7621,0.7645,0.7646,0.7646,0,0,0.8165,0.8135,0.8105,0.8074,0.8028,0.8,0.7993,0.7941,0.7921,0.7875,0.785,0.7817,0.775,0.7717,0.7691,0.7666,0.7648,0.7654,0.7654,0.763,0.7628,0.7626,0.7616,0.7613,0.7651,0.7652,0.7652,0,0.8173,0.8122,0.8091,0.8056,0.8031,0.8003,0.7971,0.7942,0.7884,0.7866,0.7864,0.7779,0.7745,0.7692,0.7686,0.7666,0.7655,0.766,0.7631,0.7629,0.7627,0.7617,0.7613,0.7653,0.7652,0.7652,0.7652,0,0.8134,0.8099,0.808,0.8027,0.8,0.7967,0.7928,0.7904,0.7885,0.7856,0.781,0.7768,0.7719,0.7705,0.7685,0.7649,0.7648,0.7639,0.7635,0.7626,0.7616,0.7612,0.7654,0.7654,0.7653,0.7653,0,0,0.8135,0.8066,0.806,0.8035,0.7982,0.7954,0.7919,0.7873,0.7852,0.7814,0.7782,0.7727,0.7718,0.7689,0.7665,0.7644,0.7625,0.7637,0.7635,0.7635,0.7581,0.7587,0.7583,0.7614,0.7613,0.7612,0.7585,0,0.8114,0.8052,0.8023,0.7974,0.794,0.7913,0.7883,0.7846,0.7819,0.7785,0.7754,0.7715,0.7707,0.7689,0.7667,0.7633,0.7614,0.7634,0.7582,0.7581,0.7594,0.7578,0.7584,0.756,0.7581,0.758,0.7579,0,0.808,0.8044,0.7992,0.7943,0.7928,0.7901,0.7857,0.7826,0.7783,0.7765,0.7733,0.771,0.7671,0.7671,0.7615,0.763,0.7607,0.7587,0.7585,0.7577,0.7578,0.7569,0.7552,0.7548,0.7573,0.7574,0.7574,0,0.8084,0.8022,0.7983,0.7963,0.7906,0.7887,0.7862,0.782,0.7795,0.7756,0.7738,0.7695,0.767,0.7636,0.7601,0.7605,0.7548,0.7546,0.753,0.7531,0.7518,0.7519,0.7496,0.7506,0.7506,0.7506,0.7506,0,0.8063,0.8031,0.7984,0.796,0.7924,0.789,0.7854,0.7827,0.779,0.7758,0.7732,0.7703,0.766,0.7624,0.7597,0.7554,0.7544,0.7526,0.7519,0.7528,0.753,0.7511,0.7511,0.7505,0.7505,0.7506,0.7506,0,0.806,0.8028,0.7983,0.7933,0.792,0.7895,0.7851,0.7826,0.7798,0.7758,0.7747,0.7702,0.7659,0.7622,0.7565,0.7547,0.7502,0.7494,0.7517,0.7513,0.7499,0.75,0.7461,0.7453,0.7471,0.7471,0.7471,0,0.8048,0.8024,0.7972,0.795,0.7926,0.7891,0.7865,0.7831,0.7805,0.7755,0.7735,0.7691,0.7653,0.7586,0.7547,0.7503,0.7492,0.7482,0.7485,0.7495,0.749,0.7492,0.7488,0.7481,0.7481,0.7481,0.7481,0,0.8029,0.8014,0.798,0.7939,0.791,0.7876,0.784,0.7823,0.7782,0.7754,0.7711,0.7682,0.7625,0.758,0.7533,0.7504,0.7485,0.7481,0.7475,0.7482,0.7496,0.7487,0.7515,0.7481,0.7481,0.7481,0.7481,0.7481,0.802,0.7997,0.7957,0.7919,0.789,0.7858,0.7831,0.7801,0.7765,0.7717,0.7699,0.7654,0.7612,0.7545,0.7518,0.7481,0.7478,0.7469,0.7466,0.7464,0.7465,0.7504,0.7472,0.7472,0.7472,0.7472,0.7472,0,0.7998,0.7972,0.7937,0.789,0.786,0.7848,0.7808,0.7783,0.7745,0.7708,0.7672,0.7622,0.7579,0.7538,0.7493,0.7471,0.7461,0.746,0.746,0.7454,0.7471,0.7481,0.7469,0.7469,0.7469,0.7469,0.7469,0.7469,0.7983,0.7944,0.7924,0.7869,0.7842,0.78,0.7779,0.7748,0.7719,0.7665,0.763,0.7604,0.7565,0.7516,0.7476,0.7465,0.7448,0.7449,0.7436,0.7452,0.7453,0.7454,0.7462,0.7447,0.7447,0.7421,0.7421,0.742]},{"header":{"parameterUnit":"m.s-1","parameterCategory":1,"la1":30.2991,"la2":30.254,"lo1":-89.0895,"lo2":-89.0444,"dy":0.0017,"dx":0.0017,"nx":28,"ny":28,"refTime":"2025-08-21T09:00:00:Z","depth":0,"parameterNumber":3,"parameterNumberName":"V-component_of_WINDS"},"data":[0,0,0,0,0,0,0,0,0,0,0,0,0,0,0,0,0,0,0,0,0,0,0,0,0,0,0,0,0,0,0,0,0,0,0,0,0,0,0,0,0,0,0,0,0,0,0,0,0,0,0,0,0,0,0,0,0,0,0.6151,0.6152,0,0.6292,0.6293,0.6295,0.6323,0.6322,0.6321,0.632,0.6464,0.6469,0.6474,0,0,0,0,0,0,0,0,0,0,0,0,0,0.5907,0.5911,0.615,0.6152,0.6154,0.6291,0.6293,0.6295,0.6323,0.6322,0.6321,0.6319,0.6463,0.6468,0.6474,0,0,0,0,0,0,0,0,0,0,0,0,0,0.6026,0.5912,0.615,0.6185,0.6189,0.6291,0.6293,0.6296,0.6323,0.6322,0.632,0.6319,0.6461,0.6468,0.6475,0.6552,0,0,0.6497,0.65,0,0,0,0,0,0,0,0,0.602,0.6035,0.6178,0.6182,0.6188,0.6288,0.626,0.6382,0.6324,0.6272,0.632,0.6318,0.6407,0.6418,0.6448,0.6559,0.6565,0.6498,0.6502,0.6505,0.6507,0,0,0,0,0,0,0,0.6011,0.603,0.6206,0.618,0.6186,0.6193,0.6208,0.6283,0.6347,0.6277,0.6279,0.6295,0.6409,0.6441,0.6452,0.6567,0.6498,0.6504,0.6509,0.6511,0.675,0.6752,0,0,0,0,0,0,0.5997,0.6022,0.6202,0.6211,0.6098,0.6199,0.6216,0.6257,0.6346,0.6358,0.6297,0.6296,0.643,0.6443,0.6457,0.6555,0.6505,0.6512,0.6516,0.6748,0.6751,0.6753,0,0,0,0,0,0,0.5991,0.6013,0.6196,0.6117,0.6141,0.6205,0.6251,0.6261,0.6293,0.6361,0.6373,0.6318,0.6429,0.6447,0.6529,0.6561,0.6515,0.6522,0.6746,0.6749,0.6752,0.6751,0,0,0,0,0,0,0.5984,0.601,0.604,0.6118,0.6145,0.6265,0.6253,0.6265,0.6306,0.6306,0.6384,0.6396,0.6429,0.6518,0.6536,0.657,0.6528,0.6744,0.6747,0.6751,0.6748,0.6753,0.6758,0,0,0,0,0,0.5976,0.6034,0.6042,0.6063,0.6184,0.6267,0.6283,0.632,0.6308,0.6339,0.6383,0.6393,0.6554,0.6526,0.6547,0.6583,0.6742,0.6746,0.6751,0.6746,0.6752,0.6758,0,0,0,0,0,0,0.5959,0.6045,0.6054,0.614,0.6196,0.6272,0.6312,0.6325,0.6386,0.6384,0.6428,0.6445,0.6525,0.6562,0.653,0.6663,0.6647,0.6656,0.6637,0.6643,0.6648,0.6638,0.6534,0,0,0,0,0,0.5965,0.6025,0.6097,0.6166,0.6193,0.6248,0.6285,0.6309,0.6369,0.6393,0.6443,0.6501,0.6565,0.6606,0.6668,0.6753,0.6771,0.6789,0.6793,0.6797,0.6804,0.6854,0.6863,0.6768,0.6768,0.6767,0,0,0.5979,0.6033,0.6068,0.6164,0.621,0.6272,0.6267,0.6333,0.6379,0.6403,0.6484,0.6522,0.659,0.6674,0.6714,0.6708,0.6834,0.6802,0.6805,0.6811,0.6859,0.6868,0.6876,0.6771,0.677,0.677,0,0,0.6036,0.6082,0.6145,0.6192,0.6262,0.6298,0.6313,0.6387,0.6414,0.6495,0.6515,0.6571,0.6679,0.6727,0.6765,0.6841,0.6853,0.6859,0.6885,0.6932,0.694,0.6947,0.6975,0.6984,0.6866,0.6866,0.6866,0,0.6044,0.6138,0.6175,0.6241,0.6282,0.6307,0.6371,0.6414,0.6501,0.653,0.6521,0.6659,0.6706,0.6803,0.6821,0.6851,0.687,0.6851,0.6935,0.6943,0.695,0.6977,0.6988,0.6867,0.6867,0.6867,0.6867,0,0.6145,0.621,0.6252,0.6336,0.6382,0.6446,0.6494,0.6537,0.6557,0.6593,0.6677,0.6734,0.6809,0.6833,0.6853,0.6933,0.6928,0.6927,0.6911,0.6959,0.6985,0.6996,0.6868,0.6867,0.6867,0.6867,0,0,0.6196,0.63,0.6315,0.6354,0.6434,0.6485,0.655,0.6623,0.666,0.6719,0.6776,0.6867,0.6867,0.6911,0.6936,0.6977,0.7035,0.6972,0.6974,0.6983,0.7129,0.713,0.7142,0.7043,0.7045,0.7047,0.7124,0,0.6263,0.6381,0.6418,0.6517,0.6578,0.6602,0.6659,0.6714,0.675,0.6807,0.6847,0.6912,0.6906,0.6933,0.6975,0.7019,0.7065,0.7014,0.7098,0.71,0.7082,0.7156,0.7157,0.7227,0.7134,0.7136,0.7137,0,0.6358,0.642,0.6525,0.6597,0.6624,0.6675,0.6746,0.68,0.6863,0.6887,0.6936,0.6958,0.7028,0.7007,0.7105,0.7069,0.7105,0.7132,0.7136,0.7146,0.7123,0.717,0.725,0.7261,0.7154,0.7152,0.7151,0,0.6387,0.6495,0.6573,0.6605,0.6691,0.6727,0.6764,0.6826,0.6868,0.693,0.6958,0.7027,0.7065,0.7118,0.7158,0.7139,0.7253,0.7235,0.7275,0.7274,0.7299,0.7297,0.7388,0.7319,0.7319,0.7319,0.7319,0,0.646,0.6523,0.6587,0.6635,0.6707,0.6748,0.6819,0.6858,0.6912,0.6969,0.6993,0.7045,0.7094,0.7153,0.7185,0.7262,0.7278,0.73,0.7308,0.7299,0.7296,0.7324,0.7321,0.7322,0.7321,0.7321,0.732,0,0.6504,0.6549,0.6636,0.671,0.6731,0.6781,0.6845,0.6893,0.6929,0.7,0.7019,0.7077,0.7148,0.7193,0.7283,0.7304,0.7389,0.7394,0.7368,0.7372,0.741,0.7406,0.7523,0.7541,0.7459,0.7459,0.746,0,0.6549,0.6598,0.6678,0.6718,0.6756,0.6819,0.6862,0.6904,0.6949,0.7025,0.7063,0.7136,0.7196,0.7308,0.7358,0.7427,0.7436,0.7472,0.7446,0.7436,0.7438,0.7436,0.7442,0.7476,0.7477,0.7478,0.7478,0,0.6623,0.6643,0.6704,0.6774,0.6825,0.6882,0.6938,0.6969,0.7021,0.707,0.7143,0.7189,0.7281,0.7353,0.7427,0.7466,0.7481,0.7485,0.7499,0.7491,0.7474,0.7485,0.7381,0.7483,0.7482,0.7482,0.7482,0.7482,0.667,0.6716,0.678,0.6848,0.6895,0.6948,0.6996,0.7039,0.7101,0.7179,0.72,0.7277,0.7339,0.744,0.748,0.7541,0.7537,0.7555,0.756,0.7565,0.7566,0.7463,0.7554,0.7554,0.7554,0.7554,0.7554,0,0.6747,0.6789,0.6851,0.693,0.6984,0.6993,0.7057,0.7101,0.7168,0.7225,0.7284,0.7368,0.7438,0.7494,0.7566,0.7604,0.7613,0.7622,0.762,0.7629,0.7565,0.7548,0.7613,0.7613,0.7613,0.7613,0.7613,0.7613,0.6794,0.6872,0.69,0.7002,0.7044,0.7119,0.7155,0.7204,0.725,0.7343,0.7401,0.7437,0.7495,0.7571,0.7636,0.7651,0.7677,0.7684,0.7701,0.764,0.7634,0.7627,0.7611,0.7689,0.7689,0.776,0.7761,0.7761]}]]